STARLINK-32241 (60437 NORAD) Tracking and Keplerian Element Data

This shows tracking and keplerian element data for the satellite.

Feedback or suggestion? Click here.




ElementValue
Catalog60437
NameSTARLINK-32241
Epoch Orbit1077
Epoch Day286.72733046
Epoch Year2024
RAAN79.6925
Inclination53.1617
Eccentricity0.0001101
Argument of Perigee139.5381
Mean Anonmoly220.5701
Mean Motion15.3019149
Decay Rate-2.751E-05
L11 60437U 24144N 24286.72733046 -.00002751 00000+0 -80822-4 0 9999
L22 60437 53.1617 79.6925 0001101 139.5381 220.5701 15.30191490 10771



Live tracking and technical data element details for STARLINK-32241 (NORAD 60437). STARLINK-32241 can be tracked NOW for your location showing map with azimuth and elevation plus other details from your city location.







IsCatalogInMostPopularTable: catalog: 60437, numindb: 7
Update: records affected: 1



GetName: 60437 STARLINK-32241

Hit Count: updated at: Fri, 06 Dec 2024 11:07:38 GMT